, OR

(GMT )
Tillamook

Weather History for KTMK - April, 2014

Change the Weather History Date:

Monday, April 21, 2014

  Actual Average Record
Temperature  
Mean Temperature 50 °F -  
Max Temperature 60 °F - - ()
Min Temperature 41 °F - - ()
Degree Days  
Heating Degree Days 14    
Moisture  
Dew Point 46 °F    
Average Humidity 88    
Maximum Humidity 100    
Minimum Humidity 55    
Precipitation  
Precipitation 0.17 in - - ()
Sea Level Pressure  
Sea Level Pressure 30.03 in    
Wind  
Wind Speed 2 mph (West)    
Max Wind Speed 13 mph    
Max Gust Speed 16 mph    
Visibility 7 miles    
Events Rain    
Averages and records for this station are not official NWS values.
T = Trace of Precipitation, MM = Missing Value Source: NWS Daily Summary

Daily Weather History Graph

Daily Weather History Graph

Search for Another Location

Airport or City:

Astronomy

Apr. 21, 2014 Rise Set
Actual Time 7:19 AM MDT 9:09 PM MDT
Civil Twilight 6:47 AM MDT 9:40 PM MDT
Nautical Twilight 6:09 AM MDT 10:19 PM MDT
Astronomical Twilight 5:27 AM MDT 11:01 PM MDT
Moon 2:47 AM MDT (4/21) 12:49 PM MDT (4/21)
Length of Visible Light 14h 53m
Length of Day
13h 49m
Waning Gibbous, 57% of the Moon is Illuminated
Apr 21
Waning Gibbous
Apr 22
Last Quarter
Apr 29
New
May 6
First Quarter
May 14
Full

Hourly Weather History & Observations

Time (MDT) Temp. Windchill Dew Point Humidity Pressure Visibility Wind Dir Wind Speed Gust Speed Precip Events Conditions
12:15 AM 46.4 °F - 42.8 °F 87% 30.17 in 7.0 mi Calm Calm - N/A   Clear
12:35 AM 46.4 °F - 42.8 °F 87% 30.16 in 7.0 mi Calm Calm - N/A   Clear
12:55 AM 46.4 °F - 44.6 °F 93% 30.16 in 7.0 mi Calm Calm - N/A   Clear
1:15 AM 44.6 °F - 44.6 °F 100% 30.15 in 7.0 mi Calm Calm - N/A   Clear
1:35 AM 44.6 °F - 44.6 °F 100% 30.16 in 7.0 mi Calm Calm - N/A   Clear
1:55 AM 44.6 °F - 44.6 °F 100% 30.15 in 7.0 mi Calm Calm - N/A   Clear
2:15 AM 46.4 °F - 44.6 °F 93% 30.15 in 7.0 mi Calm Calm - N/A   Clear
2:35 AM 44.6 °F - 44.6 °F 100% 30.16 in 7.0 mi Calm Calm - N/A   Clear
2:55 AM 46.4 °F 45.2 °F 44.6 °F 93% 30.14 in 7.0 mi East 3.5 mph - N/A   Clear
3:15 AM 44.6 °F - 44.6 °F 100% 30.14 in 7.0 mi Calm Calm - N/A   Clear
3:35 AM 44.6 °F - 42.8 °F 93% 30.13 in 7.0 mi Calm Calm - N/A   Clear
3:55 AM 44.6 °F 43.1 °F 42.8 °F 93% 30.12 in 7.0 mi SE 3.5 mph - N/A   Clear
4:15 AM 44.6 °F - 42.8 °F 93% 30.12 in 10.0 mi Calm Calm - N/A   Clear
4:35 AM 44.6 °F 43.1 °F 42.8 °F 93% 30.12 in 7.0 mi SSW 3.5 mph - N/A   Clear
4:55 AM 44.6 °F - 42.8 °F 93% 30.12 in 7.0 mi Calm Calm - N/A   Clear
5:15 AM 44.6 °F 43.1 °F 44.6 °F 100% 30.11 in 7.0 mi ESE 3.5 mph - N/A   Clear
5:55 AM 44.6 °F - 42.8 °F 93% 30.10 in 7.0 mi Calm Calm - N/A   Clear
6:15 AM 42.8 °F - 42.8 °F 100% 30.10 in 7.0 mi Calm Calm - N/A   Clear
6:35 AM 42.8 °F - 42.8 °F 100% 30.09 in 7.0 mi Calm Calm - N/A   Scattered Clouds
6:55 AM 42.8 °F 40.1 °F 42.8 °F 100% 30.08 in 10.0 mi SE 4.6 mph - N/A   Scattered Clouds
7:15 AM 42.8 °F - 41.0 °F 93% 30.08 in 10.0 mi Calm Calm - N/A   Clear
7:35 AM 41.0 °F - 41.0 °F 100% 30.08 in 7.0 mi Calm Calm - N/A   Clear
7:55 AM 41.0 °F 39.0 °F 41.0 °F 100% 30.08 in 5.0 mi South 3.5 mph - N/A   Clear
8:15 AM 41.0 °F - 39.2 °F 93% 30.08 in 7.0 mi Calm Calm - N/A   Clear
8:35 AM 41.0 °F 39.0 °F 41.0 °F 100% 30.08 in 7.0 mi SE 3.5 mph - N/A   Scattered Clouds
8:55 AM 42.8 °F - 42.8 °F 100% 30.07 in 7.0 mi Calm Calm - N/A   Scattered Clouds
9:15 AM 42.8 °F 41.1 °F 42.8 °F 100% 30.07 in 7.0 mi WSW 3.5 mph - N/A   Clear
9:35 AM 44.6 °F - 44.6 °F 100% 30.07 in 10.0 mi Calm Calm - N/A   Clear
9:55 AM 46.4 °F - 42.8 °F 87% 30.07 in 10.0 mi Calm Calm - N/A   Clear
10:15 AM 48.2 °F - 42.8 °F 82% 30.06 in 10.0 mi Calm Calm - N/A   Clear
10:35 AM 50.0 °F - 42.8 °F 76% 30.05 in 10.0 mi Calm Calm - N/A   Clear
10:55 AM 51.8 °F - 44.6 °F 76% 30.04 in 10.0 mi NE 4.6 mph - N/A   Clear
11:15 AM 53.6 °F - 44.6 °F 72% 30.03 in 7.0 mi ENE 4.6 mph - N/A   Clear
11:35 AM 55.4 °F - 44.6 °F 67% 30.02 in 7.0 mi Calm Calm - N/A   Clear
11:55 AM 55.4 °F - 44.6 °F 67% 30.01 in 10.0 mi Calm Calm - N/A   Clear
12:15 PM 59.0 °F - 44.6 °F 59% 30.00 in 7.0 mi North 3.5 mph - N/A   Clear
12:35 PM 59.0 °F - 44.6 °F 59% 30.00 in 7.0 mi Calm Calm - N/A   Clear
12:55 PM 60.8 °F - 44.6 °F 55% 29.99 in 10.0 mi NW 4.6 mph - N/A   Clear
1:15 PM 59.0 °F - 46.4 °F 63% 29.99 in 5.0 mi West 9.2 mph - N/A   Haze
1:35 PM 59.0 °F - 46.4 °F 63% 29.98 in 7.0 mi WSW 10.4 mph - N/A   Overcast
1:55 PM 59.0 °F - 46.4 °F 63% 29.98 in 7.0 mi West 9.2 mph - N/A   Overcast
2:15 PM 59.0 °F - 46.4 °F 63% 29.97 in 7.0 mi West 4.6 mph - N/A   Overcast
2:35 PM 59.0 °F - 46.4 °F 63% 29.97 in 7.0 mi West 6.9 mph - N/A   Overcast
2:55 PM 59.0 °F - 46.4 °F 63% 29.96 in 7.0 mi WNW 10.4 mph - N/A   Overcast
3:15 PM 59.0 °F - 46.4 °F 63% 29.95 in 7.0 mi WNW 10.4 mph - N/A   Overcast
3:35 PM 59.0 °F - 46.4 °F 63% 29.95 in 7.0 mi West 8.1 mph - N/A   Overcast
3:55 PM 55.4 °F - 46.4 °F 72% 29.95 in 7.0 mi West 12.7 mph 16.1 mph N/A   Overcast
4:15 PM 55.4 °F - 46.4 °F 72% 29.96 in 7.0 mi West 11.5 mph - N/A   Overcast
4:35 PM 53.6 °F - 48.2 °F 82% 29.97 in 5.0 mi WSW 10.4 mph - N/A Rain Light Rain
4:55 PM 53.6 °F - 48.2 °F 82% 29.97 in 5.0 mi WSW 8.1 mph - N/A Rain Light Rain
5:15 PM 53.6 °F - 50.0 °F 88% 29.97 in 4.0 mi WSW 5.8 mph - N/A   Drizzle
5:35 PM 51.8 °F - 50.0 °F 94% 29.96 in 3.0 mi West 3.5 mph - 0.02 in Rain Light Rain
5:55 PM 51.8 °F - 51.8 °F 100% 29.96 in 5.0 mi WNW 8.1 mph - 0.04 in Rain Light Rain
6:15 PM 51.8 °F - 51.8 °F 100% 29.96 in 5.0 mi NW 10.4 mph - N/A   Light Drizzle
6:35 PM 51.8 °F - 50.0 °F 94% 29.96 in 5.0 mi WNW 9.2 mph - 0.01 in Rain Light Rain
6:55 PM 50.0 °F - 50.0 °F 100% 29.96 in 5.0 mi WNW 8.1 mph - 0.01 in Rain Light Rain
7:15 PM 50.0 °F - 50.0 °F 100% 29.96 in 5.0 mi WNW 6.9 mph - 0.02 in Rain Light Rain
7:35 PM 50.0 °F - 48.2 °F 94% 29.95 in 5.0 mi WNW 3.5 mph - 0.05 in Rain Rain
7:55 PM 50.0 °F - 50.0 °F 100% 29.95 in 7.0 mi West 5.8 mph - 0.06 in Rain Light Rain
8:15 PM 50.0 °F - 50.0 °F 100% 29.95 in 10.0 mi WSW 4.6 mph - N/A   Drizzle
8:35 PM 50.0 °F - 50.0 °F 100% 29.94 in 5.0 mi Calm Calm - 0.01 in Rain Light Rain
8:55 PM 50.0 °F - 50.0 °F 100% 29.94 in 7.0 mi Calm Calm - 0.02 in Rain Light Rain
9:15 PM 50.0 °F - 50.0 °F 100% 29.93 in 7.0 mi West 3.5 mph - 0.01 in Rain Light Rain
9:35 PM 50.0 °F - 48.2 °F 94% 29.92 in 10.0 mi West 5.8 mph - 0.01 in   Light Drizzle
9:55 PM 48.2 °F - 46.4 °F 93% 29.93 in 10.0 mi West 6.9 mph - 0.01 in   Overcast
10:15 PM 48.2 °F - 46.4 °F 93% 29.94 in 10.0 mi WSW 5.8 mph - N/A   Overcast
10:35 PM 48.2 °F - 46.4 °F 93% 29.95 in 10.0 mi SW 4.6 mph - N/A   Overcast
10:55 PM 48.2 °F - 46.4 °F 93% 29.95 in 10.0 mi WSW 4.6 mph - 0.01 in Rain Light Rain
11:15 PM 48.2 °F - 46.4 °F 93% 29.94 in 10.0 mi West 4.6 mph - 0.01 in   Drizzle
11:35 PM 48.2 °F - 46.4 °F 93% 29.93 in 10.0 mi Calm Calm - 0.01 in Rain Light Rain
11:55 PM 46.4 °F 45.2 °F 46.4 °F 100% 29.93 in 10.0 mi WSW 3.5 mph - 0.02 in   Light Drizzle